Skip Page Navigation
NASA JPL Caltech
NASA Logo - Jet Propulsion Laboratory + View the NASA Portal
+ Center for Near-Earth Object Studies
JPL Home Earth Solar System Stars & Galaxies Technology
JPL Solar System Dynamics
BODIES ORBITS EPHEMERIDES TOOLS PHYSICAL DATA DISCOVERY FAQ SITE MAP
JPL Small-Body Database Browser
Search: [ help ]  
359544 (2010 RG179)
Classification: Main-belt Asteroid          SPK-ID: 2359544
Ephemeris | Orbit Diagram | Orbital Elements | Mission Design | Physical Parameters | Discovery Circumstances ]

[ show orbit diagram ]
Orbital Elements at Epoch 2459000.5 (2020-May-31.0) TDB
Reference: JPL 12 (heliocentric ecliptic J2000)
 Element Value Uncertainty (1-sigma)   Units 
e .1603358456174043 6.1613e-08  
a 2.697690045437497 3.2066e-08 au
q 2.265153630788622 1.557e-07 au
i 11.0083948679263 5.9415e-06 deg
node 13.87439443777869 3.1217e-05 deg
peri 285.8002639884339 3.7166e-05 deg
M 115.9748187909095 2.1261e-05 deg
tp 2458479.128001350245
(2018-Dec-26.62800135)
9.0772e-05 TDB
period 1618.402352085623
4.43
2.8856e-05
7.9e-08
d
yr
n .2224415946603579 3.9661e-09 deg/d
Q 3.130226460086372 3.7207e-08 au
  Orbit Determination Parameters
   # obs. used (total)      159  
   data-arc span      6629 days (18.15 yr)  
   first obs. used      2001-09-23  
   last obs. used      2019-11-17  
   planetary ephem.      DE431  
   SB-pert. ephem.      SB431-N16  
   condition code      0  
   norm. resid. RMS      .55381  
   source      ORB  
   producer      Otto Matic  
   solution date      2019-Dec-14 20:31:38  

Additional Information
 Earth MOID = 1.28026 au 
 Jupiter MOID = 2.21492 au 
 T_jup = 3.324 
[ hide covariance matrix ]
Orbital Elements at Epoch 2457441.5 (2016-Feb-23.0) TDB
Reference: JPL 12 (heliocentric ecliptic J2000)
 Element Value Uncertainty (1-sigma)   Units 
e .1617249872179492 6.1437e-08  
q 2.260064985713234 1.5533e-07 au
tp 2456862.524475217161
(2014-Jul-24.02447522)
8.0437e-05 TDB
node 13.90440140572252 3.1181e-05 deg
peri 285.9720012230761 3.7062e-05 deg
i 11.01883676865985 5.9467e-06 deg
  Orbit Determination Parameters
   # obs. used (total)      159  
   data-arc span      6629 days (18.15 yr)  
   first obs. used      2001-09-23  
   last obs. used      2019-11-17  
   planetary ephem.      DE431  
   SB-pert. ephem.      SB431-N16  
   condition code      0  
   norm. resid. RMS      .55381  
   source      ORB  
   producer      Otto Matic  
   solution date      2019-Dec-14 20:31:38  

Additional Information
 Jupiter MOID = 2.21492 au 
 T_jup = 3.324 
Orbit Covariance (6×6)
  e q tp node peri i
e 3.774537812080247E-15 -9.430782423663541E-15 4.655274436876101E-13 -2.371518642509141E-15 1.011117443056446E-13 -1.467713121076378E-14
q -9.430782423663541E-15 2.412879883770613E-14 -8.82622112303582E-13 9.479668364393391E-16 -1.303409962299708E-13 3.896215208467832E-14
tp 4.655274436876101E-13 -8.82622112303582E-13 6.470087169328578E-9 1.779085398572941E-11 1.638333436828083E-9 -7.168312899367748E-13
node -2.371518642509141E-15 9.479668364393391E-16 1.779085398572941E-11 9.722821742995056E-10 -9.497574923669509E-10 -2.721742465788494E-11
peri 1.011117443056446E-13 -1.303409962299708E-13 1.638333436828083E-9 -9.497574923669509E-10 1.373565720465877E-9 2.674688386952425E-11
i -1.467713121076378E-14 3.896215208467832E-14 -7.168312899367748E-13 -2.721742465788494E-11 2.674688386952425E-11 3.536335598092194E-11

Ephemeris | Orbit Diagram | Orbital Elements | Mission Design | Physical Parameters | Discovery Circumstances ]

Physical Parameter Table
Parameter Symbol Value Units Sigma Reference Notes
absolute magnitude H 16.3   n/a MPO455595  

359544 (2010 RG179)          Discovered 2008-Jan-20 by Mt. Lemmon Survey at Mount Lemmon
Reference: 20130327/Numbers.arcLast Updated: 2013-03-29

Alternate Designations
 2010 RG179 = 2008 BG14 = 2009 HS66 
Ephemeris | Orbit Diagram | Orbital Elements | Mission Design | Physical Parameters | Discovery Circumstances ]
ABOUT SSD CREDITS/AWARDS PRIVACY/COPYRIGHT GLOSSARY LINKS
FirstGov 2020-Oct-21 20:55 UT
(server date/time)  
NASA Home Page
Site Manager:   Ryan S. Park
Webmaster  Alan B. Chamberlin